This demonstration page uses our WeatherBlox Daily Observations layout. Learn more.

Left ArrowRight Arrow

34.02893, -84.19858

Hourly Observations for July 15, 2018

Temp ( °F °C ) Dew Point ( °F °C ) Humidity (%) Winds ( mph kmh ) Pressure ( in mb ) Visibility ( mi km ) Precip ( " mm )
12:53 am 00:53 Clear 75 23.9 72 22.2 90 90 Calm 30.05 1018 9 14 0.00 0.00
1:42 am 01:42 Cloudy 75 23.9 73 22.8 94 94 N 3 6 30.06 1018 8 13 0.00 0.00
1:53 am 01:53 Mostly Cloudy 74 23.3 73 22.8 97 97 NNE 5 7 30.04 1017 8 13 0.00 0.00
2:53 am 02:53 Clear 75 23.9 72 22.2 90 90 Calm 30.03 1017 9 14 0.00 0.00
3:53 am 03:53 Mostly Clear 75 23.9 71 21.7 88 88 E 3 6 30.02 1017 9 14 0.00 0.00
4:53 am 04:53 Mostly Cloudy 74 23.3 71 21.7 91 91 Calm 30.03 1017 9 14 0.00 0.00
5:53 am 05:53 Partly Cloudy 73 22.8 71 21.7 94 94 Calm 30.03 1017 8 13 0.00 0.00
6:14 am 06:14 Mostly Cloudy 73 22.8 71 21.7 94 94 Calm 30.06 1018 7 11 0.00 0.00
6:53 am 06:53 Cloudy with Mist and Fog 74 23.3 72 22.2 94 94 Calm 30.05 1018 6 10 0.00 0.00
7:53 am 07:53 Cloudy 74 23.3 71 21.7 91 91 E 3 6 30.06 1018 7 11 0.00 0.00
8:53 am 08:53 Cloudy 76 24.4 71 21.7 85 85 Calm 30.07 1018 8 13 0.00 0.00
9:53 am 09:53 Cloudy 78 25.6 72 22.2 82 82 Calm 30.06 1018 8 13 0.00 0.00
10:53 am 10:53 Mostly Cloudy 80 26.7 72 22.2 76 76 VRB 5 7 30.06 1018 10 16 0.00 0.00
11:25 am 11:25 Partly Cloudy 82 27.8 71 21.7 69 69 NNE 6 9 30.06 1018 10 16 0.00 0.00
11:53 am 11:53 Mostly Cloudy 82 27.8 72 22.2 72 72 VRB 5 7 30.06 1018 10 16 0.00 0.00
12:38 pm 12:38 Mostly Cloudy 84 28.9 72 22.2 67 67 VRB 5 7 30.06 1018 10 16 0.00 0.00
12:53 pm 12:53 Mostly Cloudy 84 28.9 71 21.7 65 65 Calm 30.05 1018 10 16 0.00 0.00
1:53 pm 13:53 Partly Cloudy 87 30.6 71 21.7 59 59 E 5 7 30.03 1017 10 16 0.00 0.00
2:53 pm 14:53 Mostly Sunny 87 30.6 71 21.7 59 59 Calm 30.00 1016 10 16 0.00 0.00
3:53 pm 15:53 Partly Cloudy 90 32.2 71 21.7 54 54 Calm 29.96 1015 10 16 0.00 0.00
4:53 pm 16:53 Partly Cloudy 89 31.7 70 21.1 53 53 Calm 29.96 1015 10 16 0.00 0.00
5:53 pm 17:53 Sunny 88 31.1 71 21.7 57 57 SSE 5 7 29.96 1015 10 16 0.00 0.00
6:53 pm 18:53 Partly Cloudy 86 30 72 22.2 63 63 ESE 5 7 29.95 1014 10 16 0.00 0.00
7:53 pm 19:53 Cloudy 84 28.9 73 22.8 70 70 VRB 3 6 29.96 1014 10 16 0.00 0.00
8:53 pm 20:53 Clear 82 27.8 73 22.8 74 74 SE 5 7 29.98 1015 10 16 0.00 0.00
9:32 pm 21:32 Mostly Clear with Nearby Thunderstorms 81 27.2 73 22.8 77 77 SSE 5 7 30.00 1016 10 16 0.00 0.00
9:51 pm 21:51 Mostly Clear 81 27 73 23 79 79 SSE 3 6 30.00 1016 10 16 0.00 0.00
9:53 pm 21:53 Mostly Clear 80 26.7 73 22.8 79 79 SSE 6 9 30.00 1016 10 16 0.00 0.00
10:53 pm 22:53 Mostly Clear 79 26.1 73 22.8 82 82 S 6 9 30.01 1016 10 16 0.00 0.00
11:25 pm 23:25 Mostly Cloudy 79 26.1 74 23.3 85 85 S 5 7 30.03 1017 10 16 0.00 0.00
11:53 pm 23:53 Cloudy with Nearby Thunderstorms 79 26.1 74 23.3 85 85 WNW 12 19 30.02 1017 10 16 0.00 0.00

Powered by AerisWeather